Regional Weather Roundup
Issued by NWS

Home | Current Version | Previous Version | Graphics & Text | Print | Product List | Glossary On
Versions: 1 2 3 4 5 6 7 8 9 10 11 12 13 14 15 16 17 18 19 20 21 22 23 24 25 26 27 28 29 30 31 32 33 34 35 36 37 38 39 40 41 42 43 44 45 46 47 48 49 50
000
ASUS43 KMKX 060100
RWRWI

WISCONSIN REGIONAL WEATHER ROUNDUP
NATIONAL WEATHER SERVICE MILWAUKEE/SULLIVAN WI
800 PM CDT SUN JUL 05 2015

NOTE: "FAIR" INDICATES FEW OR NO CLOUDS BELOW 12,000 FEET WITH NO
SIGNIFICANT WEATHER AND/OR OBSTRUCTIONS TO VISIBILITY.

WIZ001-002-006>008-014>016-023>028-060200-
NORTHWEST WISCONSIN

CITY           SKY/WX    TMP DP  RH WIND       PRES   REMARKS
SUPERIOR ARPT  MOCLDY    80  70  70 SW9       29.76S HX  84
ASHLAND        MOCLDY    79  66  64 S9G21     29.80S HX  81
HAYWARD        PTCLDY    79  66  64 S14       29.84F HX  81
SIREN          CLEAR     82  67  60 S16G25    29.81F HX  84
CUMBERLAND     MOCLDY    77  64  65 S16       29.86S
RICE LAKE      MOCLDY    80  65  62 S13G22    29.87F HX  81
CHETEK         MOCLDY    79  68  69 MISG      29.87F HX  82
LADYSMITH      MOCLDY    79  65  62 S10       29.90S HX  81
EAU CLAIRE     NOT AVBL
MENOMONIE      MOCLDY    80  67  64 S13G18    29.87F HX  82
NEW RICHMOND   PTCLDY    80  68  67 S10       29.85S HX  82
OSCEOLA        PTCLDY    82  69  65 S14       29.85F HX  85
$$

WIZ003>005-009-010-017-018-060200-
NORTH CENTRAL WISCONSIN

CITY           SKY/WX    TMP DP  RH WIND       PRES   REMARKS
MANITOWISH WTR MOCLDY    76  63  63 S10       29.90S
ARBOR VITAE    PTCLDY    77  64  64 S8        29.92S
WOODRUFF       PTCLDY    77  64  64 S8        29.92S
RHINELANDER    PTCLDY    76  62  62 SW7       29.95F
EAGLE RIVER    PTCLDY    75  59  57 S5        29.92F
LAND O LAKES   PTCLDY    76  60  57 S7G16     29.93S
PHILLIPS       CLEAR     76  64  66 S10G17    29.90S
TOMAHAWK       PTCLDY    74  62  66 CALM      29.93F
MEDFORD        PTCLDY    76  63  63 S7        29.94R
MERRILL        PTCLDY    77  64  63 S9        29.94F
$$

WIZ029-030-035-036-043>047-060200-
CENTRAL WISCONSIN

CITY           SKY/WX    TMP DP  RH WIND       PRES   REMARKS
WAUSAU         PTCLDY    78  62  57 S10       29.92F HX  80
MOSINEE        CLEAR     75  63  64 S9        29.96S
MARSHFIELD     PTCLDY    75  63  66 S8        29.93F
STEVENS POINT  CLEAR     77  62  59 S8        29.96S
WAUPACA        CLEAR     80  63  56 S9        29.96S HX  81
WAUTOMA        NOT AVBL
WISC RAPIDS    PTCLDY    79  62  56 S9        29.96S HX  80
CAMP DOUGLAS   NOT AVBL
$$

WIZ011>013-019>022-031-037>040-048>050-060200-
NORTHEAST WISCONSIN

CITY           SKY/WX    TMP DP  RH WIND       PRES   REMARKS
ANTIGO         CLEAR     74  62  66 SW9       29.97R
SHAWANO        PTCLDY    81  63  54 S6        29.94F HX  82
OCONTO         CLEAR     75  65  70 S8        29.94F
STURGEON BAY   CLEAR     70  59  68 S12G18    29.99F
GREEN BAY      CLEAR     77  64  64 S12       29.96F
MANITOWOC      NOT AVBL
APPLETON       PTCLDY    77  61  57 S9        29.97F
CLINTONVILLE   CLEAR     79  63  57 S9        29.94F HX  80
OSHKOSH        CLEAR     75  64  68 S8        29.96F
$$

WIZ032>034-041-042-053>061-060200-
SOUTHWEST WISCONSIN

CITY           SKY/WX    TMP DP  RH WIND       PRES   REMARKS
LA CROSSE      PTCLDY    80  65  59 S10       29.91S HX  82
SPARTA         PTCLDY    79  62  55 S10       29.94F HX  80
VIROQUA        PTCLDY    76  64  66 S10       29.97S
BOSCOBEL       CLEAR     79  66  64 S3        29.95F HX  81
PRAIRIE DU CHI CLEAR     80  62  53 SE7       29.95S HX  81
PLATTEVILLE    PTCLDY    76  68  76 SE6       29.99R
$$

WIZ056-057-062-063-064-067-068-060200-
SOUTH CENTRAL WISCONSIN

CITY           SKY/WX    TMP DP  RH WIND       PRES   REMARKS
REEDSBURG      PTCLDY    78  66  67 S7        29.96S
BARABOO/DELLS  PTCLDY    77  62  59 S8        29.97S
LONE ROCK      NOT AVBL
MINERAL POINT  CLEAR     77  64  65 S6        30.00S
MADISON        MOCLDY    79  63  57 S9        29.98S HX  80
MIDDLETON      PTCLDY    80  62  53 S9        30.00R HX  81
WATERTOWN      CLEAR     76  64  66 S5        29.99S
MONROE         CLEAR     77  64  65 S8        30.00S
JANESVILLE     CLEAR     79  63  57 S8        29.99F HX  80
$$

WIZ051-052-058>065-066-070>072-060200-
SOUTHEAST WISCONSIN

CITY           SKY/WX    TMP DP  RH WIND       PRES   REMARKS
MILWAUKEE      PTCLDY    74  59  59 S9        30.01S
WAUKESHA       CLEAR     75  61  60 SE14      30.02S
MILWAUKEE/TIMM CLEAR     75  55  50 S10       30.01F
RACINE         CLEAR     71  58  63 S8        30.03F
BURLINGTON     CLEAR     74  62  64 SE6       30.01F
KENOSHA        CLEAR     75  60  59 S8        30.02S
FOND DU LAC    CLEAR     77  63  61 S8        29.98S
SHEBOYGAN      CLEAR     72  60  66 S7        30.00S
WEST BEND      CLEAR     77  61  57 S8        30.00S
JUNEAU         CLEAR     76  64  65 S7        30.00S
$$

LSZ147-162-060200-
LAKE SUPERIOR

STATION/POSITION TIME  TEMP    WIND        PRES    WAVE
                       AIR SEA DIR/SP/G            HT/PER
                 (UTC) (F)     (DEG/KT/KT) (MB)    (FT/S)
W MID LAKE BUOY  2350   48 39  120/  8/ 10 1009.2F   0
DEVILS ISLAND    0000   75     220/  5/  5 1008.1F
SAXON HARBOR     0000   82     200/ 10/ 20 1008.8
$$

LMZ867-665-643>646-060200-
LAKE MICHIGAN

STATION/POSITION TIME  TEMP    WIND        PRES    WAVE
                       AIR SEA DIR/SP/G            HT/PER
                 (UTC) (F)     (DEG/KT/KT) (MB)    (FT/S)
CHAMBERS ISLAND  0000   73     140/  4/ 15 1014.2F
S GREEN BAY BUOY 0000   74 71  170/ 14/ 17 1015.9F
N MID LAKE BUOY  2350   55 47  190/ 10/ 12 1015.3F   1/ 3
NORTHPORT PIER   0000   69     150/  8/ 13 1014.9F
SISTER BAY       2244   74     200/ 20/ 25   N/A
KEWAUNEE LAKESHO 0000   64     170/ 12/ 13 1015.0F
SHEBOYGAN LAKESH 0000   64     170/ 15/ 16 1016.0F
PORT WASHINGTON  0040   69     200/  6/ 10 1016.6F
ATWATER BUOY     0000   65 61  190/  8/  8 1017.6F
MILWAUKEE LAKESH 0000   67     150/ 12/ 13   N/A
KENOSHA   LAKESH 0000   69     170/  5/  7 1016.3F
$$

TC  - TEMPERATURE IN CELSIUS
VSB - VISIBILITY IN STATUTE MILES
WCI - WIND CHILL INDEX
HX  - HEAT INDEX




USA.gov is the U.S. government's official web portal to all federal, state and local government web resources and services.